TimeEST,TemperatureF,Dew PointF,Humidity,Sea Level PressureIn,VisibilityMPH,Wind Direction,Wind SpeedMPH,Gust SpeedMPH,PrecipitationIn,Events,Conditions,WindDirDegrees,DateUTC
12:56 AM,42.1,30.0,62,29.59,10.0,WNW,19.6,26.5,N/A,,Clear,290,2012-12-19 05:56:00
1:56 AM,42.1,27.0,55,29.62,10.0,WNW,23.0,31.1,N/A,,Clear,300,2012-12-19 06:56:00
2:56 AM,42.1,27.0,55,29.63,10.0,West,19.6,27.6,N/A,,Clear,280,2012-12-19 07:56:00
3:56 AM,41.0,28.0,60,29.64,10.0,WNW,15.0,25.3,N/A,,Scattered Clouds,300,2012-12-19 08:56:00
4:56 AM,41.0,26.1,55,29.65,10.0,WNW,19.6,29.9,N/A,,Clear,300,2012-12-19 09:56:00
5:56 AM,39.9,26.1,58,29.67,10.0,WNW,16.1,21.9,N/A,,Clear,300,2012-12-19 10:56:00
6:56 AM,39.9,26.1,58,29.69,10.0,WNW,15.0,23.0,N/A,,Clear,290,2012-12-19 11:56:00
7:56 AM,39.9,27.0,60,29.71,10.0,WNW,15.0,26.5,N/A,,Partly Cloudy,290,2012-12-19 12:56:00
8:56 AM,41.0,28.0,60,29.74,10.0,WNW,15.0,20.7,N/A,,Partly Cloudy,290,2012-12-19 13:56:00
9:56 AM,43.0,28.0,56,29.75,10.0,WNW,18.4,27.6,N/A,,Partly Cloudy,300,2012-12-19 14:56:00
10:56 AM,43.0,28.0,56,29.76,10.0,WNW,20.7,33.4,N/A,,Scattered Clouds,300,2012-12-19 15:56:00
11:56 AM,45.0,27.0,49,29.77,10.0,WNW,21.9,32.2,N/A,,Partly Cloudy,290,2012-12-19 16:56:00
12:56 PM,46.0,26.1,46,29.78,10.0,NW,18.4,32.2,N/A,,Partly Cloudy,320,2012-12-19 17:56:00
1:56 PM,46.9,26.1,44,29.80,10.0,NW,17.3,23.0,N/A,,Clear,310,2012-12-19 18:56:00
2:56 PM,46.0,25.0,44,29.82,10.0,NNW,18.4,24.2,N/A,,Clear,330,2012-12-19 19:56:00
3:56 PM,44.1,24.1,45,29.87,10.0,NW,18.4,31.1,N/A,,Clear,320,2012-12-19 20:56:00
4:56 PM,43.0,25.0,49,29.89,10.0,NW,19.6,-,N/A,,Clear,310,2012-12-19 21:56:00
5:56 PM,42.1,25.0,51,29.94,10.0,NW,11.5,23.0,N/A,,Clear,310,2012-12-19 22:56:00
6:56 PM,39.9,25.0,55,29.99,10.0,NW,11.5,-,N/A,,Clear,310,2012-12-19 23:56:00
7:56 PM,39.9,25.0,55,30.03,10.0,NW,9.2,-,N/A,,Clear,310,2012-12-20 00:56:00
8:56 PM,39.0,23.0,53,30.05,10.0,NW,8.1,-,N/A,,Clear,310,2012-12-20 01:56:00
9:56 PM,36.0,23.0,59,30.07,10.0,North,3.5,-,N/A,,Clear,360,2012-12-20 02:56:00
10:56 PM,32.0,24.1,73,30.11,10.0,NNW,5.8,-,N/A,,Clear,330,2012-12-20 03:56:00
11:56 PM,34.0,23.0,64,30.11,10.0,NW,3.5,-,N/A,,Clear,310,2012-12-20 04:56:00